• In Austria
  • List of Countries
  • For 7 days
  • Water Temperature
  • Satellite Maps
  • Weather Map
  • News
  • Weather Widgets
  • user-avatar
    Login

    Hourly Weather Soma Bey

    Today, 18 February, Sunday

    Time Temperature Precipitation Wind Pressure Humidity
    00:00 +14°C° 0 mm 4 mps 752 mmHg 48%
    01:00 +13°C° 0 mm 4 mps 752 mmHg 50%
    02:00 +13°C° 0 mm 3 mps 752 mmHg 52%
    03:00 +12°C° 0 mm 3 mps 752 mmHg 53%
    04:00 +12°C° 0 mm 3 mps 752 mmHg 54%
    05:00 +12°C° 0 mm 3 mps 752 mmHg 56%
    06:00 +12°C° 0 mm 3 mps 752 mmHg 53%
    07:00 +13°C° 0 mm 3 mps 753 mmHg 50%
    08:00 +14°C° 0 mm 3 mps 753 mmHg 47%
    09:00 +17°C° 0 mm 2 mps 753 mmHg 42%
    10:00 +19°C° 0 mm 2 mps 753 mmHg 36%
    11:00 +20°C° 0 mm 2 mps 753 mmHg 31%
    12:00 +21°C° 0 mm 2 mps 752 mmHg 29%
    13:00 +22°C° 0 mm 3 mps 752 mmHg 27%
    14:00 +22°C° 0 mm 3 mps 751 mmHg 28%
    15:00 +22°C° 0 mm 3 mps 751 mmHg 30%
    16:00 +22°C° 0 mm 3 mps 751 mmHg 32%
    17:00 +22°C° 0 mm 3 mps 751 mmHg 35%
    18:00 +21°C° 0 mm 3 mps 751 mmHg 39%
    19:00 +20°C° 0 mm 3 mps 751 mmHg 44%
    20:00 +18°C° 0 mm 2 mps 751 mmHg 49%
    21:00 +18°C° 0 mm 2 mps 751 mmHg 51%
    22:00 +18°C° 0 mm 2 mps 751 mmHg 54%
    23:00 +17°C° 0 mm 2 mps 751 mmHg 57%

    Tomorrow, 19 February, Monday

    Time Temperature Precipitation Wind Pressure Humidity
    00:00 +17°C° 0 mm 3 mps 751 mmHg 59%
    01:00 +17°C° 0 mm 3 mps 751 mmHg 61%
    02:00 +16°C° 0 mm 3 mps 751 mmHg 63%
    03:00 +16°C° 0 mm 3 mps 751 mmHg 64%
    04:00 +16°C° 0 mm 3 mps 751 mmHg 65%
    05:00 +16°C° 0 mm 3 mps 750 mmHg 67%
    06:00 +17°C° 0 mm 3 mps 751 mmHg 62%
    07:00 +18°C° 0 mm 3 mps 751 mmHg 58%
    08:00 +19°C° 0 mm 3 mps 751 mmHg 54%
    09:00 +20°C° 0 mm 3 mps 751 mmHg 48%
    10:00 +21°C° 0 mm 3 mps 751 mmHg 42%
    11:00 +22°C° 0 mm 3 mps 751 mmHg 36%
    12:00 +24°C° 0 mm 3 mps 751 mmHg 35%
    13:00 +25°C° 0 mm 3 mps 750 mmHg 34%
    14:00 +25°C° 0 mm 3 mps 750 mmHg 32%
    15:00 +25°C° 0 mm 3 mps 750 mmHg 35%
    16:00 +24°C° 0 mm 3 mps 750 mmHg 38%
    17:00 +24°C° 0 mm 2 mps 749 mmHg 41%
    18:00 +23°C° 0 mm 2 mps 749 mmHg 44%
    19:00 +21°C° 0 mm 2 mps 750 mmHg 47%
    20:00 +22°C° 0 mm 1 mps 750 mmHg 50%
    21:00 +21°C° 0 mm 1 mps 749 mmHg 52%
    22:00 +21°C° 0 mm 1 mps 749 mmHg 53%
    23:00 +19°C° 0 mm 2 mps 749 mmHg 55%

    Day after tomorrow, 20 February, Tuesday

    Time Temperature Precipitation Wind Pressure Humidity
    00:00 +19°C° 0 mm 2 mps 749 mmHg 53%
    01:00 +19°C° 0 mm 2 mps 749 mmHg 52%
    02:00 +20°C° 0 mm 2 mps 748 mmHg 50%
    03:00 +19°C° 0 mm 2 mps 748 mmHg 49%
    04:00 +19°C° 0 mm 3 mps 748 mmHg 49%
    05:00 +19°C° 0 mm 3 mps 748 mmHg 48%
    06:00 +20°C° 0 mm 3 mps 748 mmHg 45%
    07:00 +20°C° 0 mm 3 mps 748 mmHg 42%
    08:00 +21°C° 0 mm 3 mps 749 mmHg 39%
    09:00 +22°C° 0 mm 3 mps 749 mmHg 35%
    10:00 +24°C° 0 mm 3 mps 749 mmHg 30%
    11:00 +25°C° 0 mm 4 mps 749 mmHg 26%
    12:00 +26°C° 0 mm 4 mps 748 mmHg 26%
    13:00 +26°C° 0 mm 5 mps 748 mmHg 26%
    14:00 +26°C° 0 mm 5 mps 747 mmHg 27%
    15:00 +26°C° 0 mm 5 mps 747 mmHg 30%
    16:00 +25°C° 0 mm 5 mps 746 mmHg 34%
    17:00 +23°C° 0 mm 4 mps 746 mmHg 37%
    18:00 +22°C° 0 mm 3 mps 746 mmHg 41%
    19:00 +21°C° 0 mm 2 mps 747 mmHg 45%
    20:00 +20°C° 0 mm 2 mps 747 mmHg 48%
    21:00 +19°C° 0 mm 2 mps 747 mmHg 50%
    22:00 +20°C° 0 mm 1 mps 747 mmHg 52%
    23:00 +19°C° 0 mm 1 mps 747 mmHg 53%

    21 February, Wednesday

    Time Temperature Precipitation Wind Pressure Humidity
    00:00 +18°C° 0 mm 2 mps 747 mmHg 53%
    01:00 +18°C° 0 mm 2 mps 747 mmHg 53%
    02:00 +17°C° 0 mm 2 mps 746 mmHg 53%
    03:00 +17°C° 0 mm 2 mps 746 mmHg 53%
    04:00 +16°C° 0 mm 2 mps 746 mmHg 53%
    05:00 +16°C° 0 mm 2 mps 746 mmHg 53%
    06:00 +17°C° 0 mm 2 mps 747 mmHg 48%
    07:00 +20°C° 0 mm 1 mps 747 mmHg 42%
    08:00 +22°C° 0 mm 1 mps 747 mmHg 37%
    09:00 +23°C° 0 mm 1 mps 747 mmHg 33%
    10:00 +24°C° 0 mm 1 mps 747 mmHg 29%
    11:00 +26°C° 0 mm 1 mps 747 mmHg 25%
    12:00 +27°C° 0 mm 2 mps 747 mmHg 24%
    13:00 +27°C° 0 mm 2 mps 746 mmHg 24%
    14:00 +28°C° 0 mm 3 mps 746 mmHg 23%
    15:00 +27°C° 0 mm 3 mps 745 mmHg 27%
    16:00 +27°C° 0 mm 3 mps 745 mmHg 30%
    17:00 +26°C° 0 mm 3 mps 745 mmHg 33%
    18:00 +25°C° 0 mm 2 mps 746 mmHg 37%
    19:00 +24°C° 0 mm 2 mps 746 mmHg 41%
    20:00 +23°C° 0 mm 1 mps 747 mmHg 45%
    21:00 +23°C° 0 mm 2 mps 747 mmHg 48%
    22:00 +21°C° 0 mm 2 mps 746 mmHg 51%
    23:00 +21°C° 0 mm 2 mps 746 mmHg 53%

    22 February, Thursday

    Time Temperature Precipitation Wind Pressure Humidity
    00:00 +20°C° 0 mm 2 mps 746 mmHg 55%
    01:00 +20°C° 0 mm 2 mps 745 mmHg 57%
    02:00 +19°C° 0 mm 2 mps 745 mmHg 59%
    03:00 +19°C° 0 mm 2 mps 745 mmHg 61%
    04:00 +19°C° 0 mm 2 mps 745 mmHg 62%
    05:00 +19°C° 0 mm 3 mps 745 mmHg 64%
    06:00 +20°C° 0 mm 3 mps 745 mmHg 60%
    07:00 +21°C° 0 mm 3 mps 745 mmHg 57%
    08:00 +22°C° 0 mm 4 mps 745 mmHg 54%
    09:00 +25°C° 0 mm 4 mps 745 mmHg 48%
    10:00 +27°C° 0 mm 4 mps 745 mmHg 42%
    11:00 +28°C° 0 mm 4 mps 745 mmHg 36%
    12:00 +29°C° 0 mm 5 mps 745 mmHg 34%
    13:00 +30°C° 0 mm 5 mps 744 mmHg 33%
    14:00 +30°C° 0 mm 6 mps 744 mmHg 31%
    15:00 +30°C° 0 mm 6 mps 744 mmHg 33%
    16:00 +30°C° 0 mm 5 mps 744 mmHg 34%
    17:00 +29°C° 0 mm 5 mps 744 mmHg 36%
    18:00 +28°C° 0 mm 4 mps 744 mmHg 41%
    19:00 +27°C° 0 mm 3 mps 744 mmHg 47%
    20:00 +26°C° 0 mm 2 mps 744 mmHg 52%
    21:00 +26°C° 0 mm 2 mps 744 mmHg 50%
    22:00 +26°C° 0 mm 2 mps 745 mmHg 47%
    23:00 +26°C° 0 mm 2 mps 745 mmHg 45%

    23 February, Friday

    Time Temperature Precipitation Wind Pressure Humidity
    00:00 +26°C° 0 mm 2 mps 745 mmHg 38%
    01:00 +26°C° 0 mm 3 mps 745 mmHg 32%
    02:00 +26°C° 0 mm 3 mps 745 mmHg 26%
    03:00 +26°C° 0 mm 3 mps 745 mmHg 27%
    04:00 +25°C° 0 mm 4 mps 745 mmHg 28%
    05:00 +25°C° 0 mm 4 mps 745 mmHg 30%
    06:00 +25°C° 0 mm 4 mps 746 mmHg 30%
    07:00 +25°C° 0 mm 4 mps 746 mmHg 31%
    08:00 +25°C° 0 mm 4 mps 747 mmHg 31%
    09:00 +26°C° 0 mm 4 mps 747 mmHg 27%
    10:00 +27°C° 0 mm 5 mps 747 mmHg 23%
    11:00 +29°C° 0 mm 6 mps 747 mmHg 20%
    12:00 +29°C° 0 mm 6 mps 747 mmHg 19%
    13:00 +29°C° 0 mm 7 mps 746 mmHg 19%
    14:00 +30°C° 0 mm 7 mps 746 mmHg 19%
    15:00 +29°C° 0 mm 7 mps 746 mmHg 20%
    16:00 +28°C° 0 mm 7 mps 746 mmHg 21%
    17:00 +27°C° 0 mm 7 mps 746 mmHg 23%
    18:00 +26°C° 0 mm 7 mps 747 mmHg 26%
    19:00 +24°C° 0 mm 6 mps 747 mmHg 29%
    20:00 +23°C° 0 mm 6 mps 748 mmHg 33%
    21:00 +22°C° 0 mm 5 mps 748 mmHg 34%
    22:00 +21°C° 0 mm 5 mps 748 mmHg 35%
    23:00 +20°C° 0 mm 5 mps 748 mmHg 36%
    Show more